Location: ??????????
(54.4061°N, 22.6114°E)
Time: 15:50:00
(UTC+00:00)

Ariane Rocket - Pass Details

Date: 23 October 2019
Orbit: 760 x 770 km, 98.8° (Epoch: 13 November)

Event Time Altitude Azimuth Distance (km) Brightness Sun altitude
Rises 16:23:19 0° 138° (SE) 3,236 5.9 -10.7°
Reaches altitude 10° 16:25:43 10° 131° (SE) 2,314 5.1 -11.0°
Maximum altitude 16:30:28 41° 63° (ENE) 1,119 3.4 -11.7°
Drops below altitude 10° 16:35:14 10° 354° (N) 2,327 5.5 -12.4°
Sets 16:37:39 0° 348° (NNW) 3,258 6.4 -12.7°
